[[{"header":{"parameterUnit":"m.s-1","parameterCategory":1,"la1":30.2991,"la2":30.254,"lo1":-89.0895,"lo2":-89.0444,"dy":0.0017,"dx":0.0017,"nx":28,"ny":28,"refTime":"2024-10-01T09:00:00:Z","depth":0,"parameterNumber":2,"parameterNumberName":"U-component_of_WINDS"},"data":[0,0,0,0,0,0,0,0,0,0,0,0,0,0,0,0,0,0,0,0,0,0,0,0,0,0,0,0,0,0,0,0,0,0,0,0,0,0,0,0,0,0,0,0,0,0,0,0,0,0,0,0,0,0,0,0,0,0,-0.9133,-0.9133,0,-0.9155,-0.9155,-0.9155,-0.9162,-0.9162,-0.9162,-0.9162,-0.9182,-0.9183,-0.9184,0,0,0,0,0,0,0,0,0,0,0,0,0,-0.9094,-0.9094,-0.9133,-0.9133,-0.9134,-0.9155,-0.9155,-0.9155,-0.9162,-0.9162,-0.9162,-0.9162,-0.9182,-0.9183,-0.9184,0,0,0,0,0,0,0,0,0,0,0,0,0,-0.9113,-0.9095,-0.9133,-0.914,-0.9141,-0.9155,-0.9155,-0.9155,-0.9162,-0.9162,-0.9162,-0.9162,-0.9182,-0.9183,-0.9184,-0.9192,0,0,-0.9187,-0.9187,0,0,0,0,0,0,0,0,-0.9112,-0.9114,-0.9138,-0.9139,-0.914,-0.9156,-0.9149,-0.9168,-0.9162,-0.9154,-0.9162,-0.9162,-0.9173,-0.9175,-0.9179,-0.9193,-0.9194,-0.9187,-0.9187,-0.9188,-0.9188,0,0,0,0,0,0,0,-0.911,-0.9113,-0.9142,-0.9139,-0.914,-0.914,-0.9143,-0.9152,-0.9164,-0.9155,-0.9155,-0.9158,-0.9174,-0.9178,-0.918,-0.9194,-0.9187,-0.9187,-0.9188,-0.9188,-0.9213,-0.9213,0,0,0,0,0,0,-0.9108,-0.9112,-0.9141,-0.9142,-0.9125,-0.9141,-0.9144,-0.9151,-0.9164,-0.9166,-0.9158,-0.9158,-0.9177,-0.9179,-0.9181,-0.919,-0.9188,-0.9188,-0.9189,-0.9212,-0.9213,-0.9213,0,0,0,0,0,0,-0.9107,-0.9111,-0.914,-0.9127,-0.9131,-0.9142,-0.915,-0.9151,-0.9156,-0.9167,-0.9168,-0.9161,-0.9177,-0.9179,-0.9189,-0.919,-0.9189,-0.919,-0.9212,-0.9212,-0.9213,-0.9209,0,0,0,0,0,0,-0.9106,-0.911,-0.9115,-0.9127,-0.9132,-0.9149,-0.915,-0.9152,-0.9158,-0.9158,-0.917,-0.9171,-0.9177,-0.9187,-0.919,-0.9192,-0.919,-0.9212,-0.9212,-0.9213,-0.9209,-0.9209,-0.9209,0,0,0,0,0,-0.9105,-0.9113,-0.9115,-0.9119,-0.9138,-0.9149,-0.9151,-0.9158,-0.9158,-0.9162,-0.9168,-0.9171,-0.919,-0.9188,-0.9191,-0.9193,-0.9212,-0.9212,-0.9213,-0.9209,-0.9209,-0.9209,0,0,0,0,0,0,-0.9101,-0.9115,-0.9117,-0.913,-0.9138,-0.915,-0.9156,-0.9158,-0.9167,-0.9167,-0.9174,-0.9176,-0.9185,-0.919,-0.9188,-0.92,-0.9201,-0.9202,-0.9197,-0.9197,-0.9197,-0.9195,-0.9191,0,0,0,0,0,-0.9101,-0.911,-0.9122,-0.9132,-0.9136,-0.9145,-0.915,-0.9154,-0.9163,-0.9166,-0.9174,-0.9181,-0.9188,-0.9193,-0.92,-0.9209,-0.921,-0.9212,-0.9212,-0.9212,-0.9212,-0.9215,-0.9215,-0.9213,-0.9213,-0.9213,0,0,-0.9103,-0.9112,-0.9117,-0.9131,-0.9138,-0.9146,-0.9148,-0.9157,-0.9162,-0.9168,-0.9177,-0.9182,-0.919,-0.9198,-0.9203,-0.9203,-0.9213,-0.9212,-0.9212,-0.9212,-0.9215,-0.9215,-0.9215,-0.9213,-0.9213,-0.9213,0,0,-0.9109,-0.9118,-0.9126,-0.9132,-0.9142,-0.9148,-0.9149,-0.916,-0.9164,-0.9173,-0.9177,-0.9182,-0.9195,-0.92,-0.9205,-0.9209,-0.9212,-0.9212,-0.9211,-0.9214,-0.9214,-0.9214,-0.9214,-0.9214,-0.9212,-0.9212,-0.9212,0,-0.911,-0.9123,-0.913,-0.9137,-0.9143,-0.9148,-0.9155,-0.916,-0.9172,-0.9175,-0.9175,-0.919,-0.9196,-0.9205,-0.9205,-0.9209,-0.921,-0.9211,-0.9214,-0.9214,-0.9214,-0.9214,-0.9214,-0.9212,-0.9212,-0.9212,-0.9212,0,-0.9121,-0.913,-0.9135,-0.9146,-0.9152,-0.9159,-0.9166,-0.917,-0.9173,-0.9178,-0.9186,-0.9193,-0.9201,-0.9203,-0.9206,-0.9211,-0.9211,-0.9212,-0.9213,-0.9214,-0.9214,-0.9214,-0.9212,-0.9212,-0.9212,-0.9212,0,0,-0.9128,-0.9141,-0.9142,-0.9146,-0.9156,-0.9162,-0.9169,-0.9176,-0.9179,-0.9186,-0.9191,-0.92,-0.9201,-0.9206,-0.9209,-0.9211,-0.9212,-0.9212,-0.9212,-0.9211,-0.9216,-0.9214,-0.9214,-0.9214,-0.9214,-0.9214,-0.9215,0,-0.9135,-0.9148,-0.9153,-0.9162,-0.9169,-0.9172,-0.9177,-0.9183,-0.9187,-0.9192,-0.9196,-0.9202,-0.9203,-0.9205,-0.9208,-0.9212,-0.9213,-0.9212,-0.9216,-0.9217,-0.9214,-0.9215,-0.9214,-0.9215,-0.9215,-0.9215,-0.9215,0,-0.9145,-0.9152,-0.9162,-0.9169,-0.9172,-0.9177,-0.9182,-0.9188,-0.9193,-0.9196,-0.92,-0.9202,-0.9207,-0.9207,-0.9213,-0.9211,-0.9213,-0.9215,-0.9215,-0.9216,-0.9216,-0.9214,-0.9215,-0.9215,-0.9215,-0.9215,-0.9215,0,-0.9147,-0.9158,-0.9165,-0.9169,-0.9177,-0.918,-0.9183,-0.9189,-0.9192,-0.9197,-0.9199,-0.9204,-0.9207,-0.921,-0.9213,-0.9213,-0.9218,-0.9219,-0.9219,-0.9218,-0.922,-0.922,-0.922,-0.9222,-0.9222,-0.9222,-0.9222,0,-0.9154,-0.916,-0.9166,-0.917,-0.9176,-0.9181,-0.9186,-0.9189,-0.9193,-0.9197,-0.92,-0.9203,-0.9208,-0.9211,-0.9213,-0.9216,-0.9218,-0.9219,-0.9219,-0.9218,-0.9218,-0.922,-0.9219,-0.9222,-0.9222,-0.9222,-0.9222,0,-0.9158,-0.9162,-0.917,-0.9176,-0.9178,-0.9182,-0.9187,-0.919,-0.9193,-0.9197,-0.9198,-0.9203,-0.9207,-0.921,-0.9215,-0.9216,-0.9219,-0.922,-0.9217,-0.9218,-0.9217,-0.9217,-0.9218,-0.9218,-0.9221,-0.9221,-0.9221,0,-0.9162,-0.9166,-0.9172,-0.9175,-0.9178,-0.9183,-0.9186,-0.919,-0.9192,-0.9197,-0.9199,-0.9203,-0.9207,-0.9212,-0.9215,-0.9218,-0.9218,-0.9219,-0.9219,-0.9217,-0.9217,-0.9216,-0.9216,-0.9218,-0.9218,-0.9218,-0.9218,0,-0.9168,-0.9169,-0.9174,-0.9178,-0.9182,-0.9186,-0.9189,-0.9191,-0.9195,-0.9198,-0.9201,-0.9204,-0.9208,-0.9211,-0.9214,-0.9216,-0.9217,-0.9218,-0.9218,-0.9217,-0.9215,-0.9215,-0.9216,-0.9218,-0.9218,-0.9218,-0.9218,-0.9218,-0.9171,-0.9174,-0.9178,-0.9182,-0.9185,-0.9188,-0.9191,-0.9194,-0.9197,-0.9201,-0.9202,-0.9205,-0.9208,-0.9212,-0.9214,-0.9215,-0.9216,-0.9216,-0.9216,-0.9216,-0.9215,-0.9215,-0.9216,-0.9216,-0.9216,-0.9216,-0.9216,0,-0.9176,-0.9178,-0.9182,-0.9187,-0.9189,-0.919,-0.9194,-0.9196,-0.9198,-0.9201,-0.9204,-0.9206,-0.9209,-0.9211,-0.9213,-0.9213,-0.9214,-0.9214,-0.9213,-0.9213,-0.9215,-0.9214,-0.9213,-0.9213,-0.9213,-0.9213,-0.9213,-0.9213,-0.9179,-0.9184,-0.9185,-0.919,-0.9192,-0.9195,-0.9197,-0.9199,-0.92,-0.9203,-0.9205,-0.9207,-0.9208,-0.921,-0.9211,-0.9212,-0.9212,-0.9211,-0.9212,-0.9213,-0.9214,-0.9214,-0.9213,-0.9212,-0.9212,-0.921,-0.921,-0.921]},{"header":{"parameterUnit":"m.s-1","parameterCategory":1,"la1":30.2991,"la2":30.254,"lo1":-89.0895,"lo2":-89.0444,"dy":0.0017,"dx":0.0017,"nx":28,"ny":28,"refTime":"2024-10-01T09:00:00:Z","depth":0,"parameterNumber":3,"parameterNumberName":"V-component_of_WINDS"},"data":[0,0,0,0,0,0,0,0,0,0,0,0,0,0,0,0,0,0,0,0,0,0,0,0,0,0,0,0,0,0,0,0,0,0,0,0,0,0,0,0,0,0,0,0,0,0,0,0,0,0,0,0,0,0,0,0,0,0,-2.009,-2.0089,0,-2.0039,-2.0038,-2.0037,-2.0009,-2.0009,-2.0009,-2.0009,-1.9956,-1.9955,-1.9953,0,0,0,0,0,0,0,0,0,0,0,0,0,-2.016,-2.0159,-2.009,-2.0089,-2.0088,-2.0039,-2.0038,-2.0037,-2.0009,-2.0009,-2.0009,-2.0009,-1.9956,-1.9955,-1.9953,0,0,0,0,0,0,0,0,0,0,0,0,0,-2.0121,-2.0159,-2.009,-2.0068,-2.0066,-2.0039,-2.0038,-2.0037,-2.0009,-2.0009,-2.0009,-2.0009,-1.9957,-1.9955,-1.9953,-1.9943,0,0,-1.9947,-1.9946,0,0,0,0,0,0,0,0,-2.0124,-2.0119,-2.0072,-2.007,-2.0067,-2.003,-2.0043,-2.0006,-2.0009,-2.0031,-2.0009,-2.0009,-1.9981,-1.9977,-1.9967,-1.9941,-1.9938,-1.9947,-1.9945,-1.9945,-1.9944,0,0,0,0,0,0,0,-2.0126,-2.0121,-2.0069,-2.0072,-2.0068,-2.006,-2.0055,-2.0036,-2.0007,-2.0029,-2.0027,-2.0021,-1.9979,-1.9969,-1.9966,-1.9938,-1.9947,-1.9945,-1.9944,-1.9943,-1.9897,-1.9896,0,0,0,0,0,0,-2.0133,-2.0123,-2.0071,-2.0068,-2.0096,-2.0059,-2.0053,-2.0042,-2.0007,-2.0002,-2.0021,-2.002,-1.9973,-1.9968,-1.9964,-1.9948,-1.9945,-1.9943,-1.9942,-1.9897,-1.9897,-1.9896,0,0,0,0,0,0,-2.0134,-2.0128,-2.0073,-2.0095,-2.0087,-2.0058,-2.0046,-2.0041,-2.0031,-2.0001,-1.9996,-2.0017,-1.9973,-1.9967,-1.9948,-1.9946,-1.9942,-1.994,-1.9897,-1.9897,-1.9896,-1.9917,0,0,0,0,0,0,-2.0137,-2.0129,-2.0126,-2.0095,-2.0086,-2.0059,-2.0046,-2.004,-2.0028,-2.0026,-1.9996,-1.999,-1.9972,-1.9951,-1.9946,-1.9943,-1.9938,-1.9897,-1.9897,-1.9897,-1.9916,-1.9918,-1.9919,0,0,0,0,0,-2.0139,-2.0134,-2.0126,-2.012,-2.0082,-2.0059,-2.0054,-2.0033,-2.0028,-2.0024,-2.0004,-1.9991,-1.9947,-1.9949,-1.9943,-1.994,-1.9897,-1.9897,-1.9897,-1.9916,-1.9917,-1.9919,0,0,0,0,0,0,-2.0166,-2.013,-2.012,-2.0106,-2.0085,-2.0054,-2.0048,-2.0035,-2.0016,-2.0015,-1.999,-1.9983,-1.9966,-1.9951,-1.9954,-1.9926,-1.992,-1.9919,-1.9937,-1.9938,-1.9939,-1.9943,-1.9937,0,0,0,0,0,-2.017,-2.0155,-2.0124,-2.0114,-2.0104,-2.0078,-2.0067,-2.0053,-2.0031,-2.0022,-2.0001,-1.998,-1.996,-1.9949,-1.993,-1.9914,-1.9906,-1.9908,-1.991,-1.9911,-1.991,-1.9898,-1.9898,-1.9896,-1.9896,-1.9896,0,0,-2.0179,-2.0157,-2.0149,-2.0119,-2.0101,-2.0085,-2.0071,-2.0055,-2.0042,-2.002,-2.0,-1.9983,-1.9958,-1.994,-1.9931,-1.9927,-1.9908,-1.9911,-1.9912,-1.991,-1.9898,-1.9898,-1.9898,-1.9896,-1.9896,-1.9896,0,0,-2.0186,-2.0169,-2.0157,-2.0139,-2.0113,-2.0095,-2.0092,-2.0062,-2.005,-2.003,-2.0012,-1.9996,-1.9964,-1.9946,-1.9932,-1.9929,-1.9916,-1.9924,-1.993,-1.9918,-1.9918,-1.9918,-1.9915,-1.9915,-1.9923,-1.9923,-1.9923,0,-2.0199,-2.0175,-2.0153,-2.0137,-2.0123,-2.0101,-2.0088,-2.0072,-2.0041,-2.0031,-2.0027,-1.9985,-1.9966,-1.9942,-1.9941,-1.9932,-1.9926,-1.9927,-1.992,-1.992,-1.992,-1.9916,-1.9916,-1.9924,-1.9924,-1.9924,-1.9924,0,-2.0192,-2.0175,-2.0169,-2.0138,-2.0124,-2.011,-2.0084,-2.0072,-2.0058,-2.004,-2.0018,-1.9994,-1.9969,-1.9962,-1.9949,-1.9936,-1.9934,-1.9925,-1.9918,-1.9921,-1.9918,-1.9916,-1.9925,-1.9925,-1.9925,-1.9925,0,0,-2.0216,-2.0171,-2.0169,-2.0154,-2.0122,-2.0108,-2.0092,-2.0067,-2.0056,-2.0034,-2.0019,-1.9991,-1.9982,-1.9967,-1.9951,-1.9941,-1.9938,-1.9934,-1.9933,-1.9934,-1.9919,-1.9924,-1.9923,-1.9929,-1.9928,-1.9928,-1.992,0,-2.0217,-2.0187,-2.0165,-2.0144,-2.0126,-2.0104,-2.0089,-2.0067,-2.005,-2.0031,-2.0012,-1.9992,-1.9983,-1.9973,-1.9962,-1.9941,-1.9934,-1.9941,-1.9913,-1.9912,-1.9919,-1.9922,-1.9928,-1.9922,-1.9919,-1.9919,-1.9919,0,-2.0215,-2.0193,-2.0169,-2.0137,-2.0129,-2.0116,-2.009,-2.0074,-2.0047,-2.0035,-2.0016,-2.0,-1.998,-1.9974,-1.9946,-1.9951,-1.9938,-1.9925,-1.9924,-1.992,-1.9915,-1.9917,-1.992,-1.9918,-1.9916,-1.9917,-1.9917,0,-2.0232,-2.0197,-2.0178,-2.0166,-2.0128,-2.0119,-2.0103,-2.0076,-2.0062,-2.0038,-2.0028,-2.0003,-1.9989,-1.9969,-1.9945,-1.9944,-1.9918,-1.9912,-1.9906,-1.9906,-1.9901,-1.9902,-1.9901,-1.9895,-1.9895,-1.9895,-1.9895,0,-2.0235,-2.0221,-2.0184,-2.0173,-2.0155,-2.013,-2.0113,-2.0095,-2.0071,-2.0054,-2.0033,-2.0017,-1.9987,-1.9967,-1.9948,-1.9926,-1.992,-1.9908,-1.9903,-1.9909,-1.9911,-1.99,-1.99,-1.9894,-1.9895,-1.9895,-1.9895,0,-2.0251,-2.0227,-2.0204,-2.0169,-2.016,-2.0149,-2.0118,-2.0105,-2.0085,-2.0064,-2.0057,-2.0026,-2.0001,-1.9975,-1.9942,-1.9929,-1.9907,-1.9901,-1.9916,-1.9913,-1.9908,-1.9908,-1.9899,-1.9896,-1.9893,-1.9894,-1.9894,0,-2.0254,-2.0243,-2.0207,-2.0194,-2.0178,-2.0157,-2.0142,-2.0115,-2.01,-2.0067,-2.0057,-2.0031,-2.0008,-1.9969,-1.9943,-1.9917,-1.9909,-1.9907,-1.9905,-1.991,-1.9907,-1.9907,-1.9905,-1.9908,-1.9909,-1.9909,-1.9909,0,-2.0262,-2.025,-2.0228,-2.0202,-2.0184,-2.0162,-2.014,-2.013,-2.0098,-2.0082,-2.0056,-2.0038,-2.0003,-1.9976,-1.9946,-1.9928,-1.9912,-1.991,-1.9907,-1.9913,-1.9921,-1.9915,-1.9917,-1.991,-1.991,-1.991,-1.991,-1.991,-2.027,-2.0258,-2.023,-2.0206,-2.0186,-2.0165,-2.015,-2.0128,-2.0106,-2.0075,-2.0061,-2.0034,-2.0005,-1.9963,-1.9945,-1.9923,-1.9919,-1.9915,-1.9914,-1.9913,-1.9914,-1.9925,-1.9918,-1.9918,-1.9918,-1.9918,-1.9917,0,-2.0275,-2.0256,-2.0234,-2.0202,-2.0183,-2.017,-2.0144,-2.0128,-2.0105,-2.008,-2.0058,-2.0026,-2.0,-1.9971,-1.9942,-1.9929,-1.9921,-1.9922,-1.9923,-1.9918,-1.992,-1.9925,-1.9929,-1.9929,-1.9929,-1.9929,-1.9929,-1.9929,-2.0276,-2.0254,-2.0238,-2.0204,-2.0184,-2.0159,-2.0144,-2.0123,-2.0103,-2.0069,-2.0047,-2.0028,-2.0,-1.9969,-1.9943,-1.9935,-1.9924,-1.9927,-1.9917,-1.9919,-1.9918,-1.9918,-1.9922,-1.9926,-1.9926,-1.9917,-1.9917,-1.9917]}]]